[[{"header":{"parameterUnit":"m.s-1","parameterCategory":1,"la1":30.2991,"la2":30.254,"lo1":-89.0895,"lo2":-89.0444,"dy":0.0017,"dx":0.0017,"nx":28,"ny":28,"refTime":"2025-05-15T09:00:00:Z","depth":0,"parameterNumber":2,"parameterNumberName":"U-component_of_WINDS"},"data":[0,0,0,0,0,0,0,0,0,0,0,0,0,0,0,0,0,0,0,0,0,0,0,0,0,0,0,0,0,0,0,0,0,0,0,0,0,0,0,0,0,0,0,0,0,0,0,0,0,0,0,0,0,0,0,0,0,0,1.7673,1.7674,0,1.7742,1.7743,1.7743,1.7726,1.7725,1.7723,1.7722,1.7791,1.7794,1.7797,0,0,0,0,0,0,0,0,0,0,0,0,0,1.7525,1.7528,1.7673,1.7674,1.7675,1.7742,1.7743,1.7744,1.7726,1.7725,1.7723,1.7721,1.779,1.7794,1.7798,0,0,0,0,0,0,0,0,0,0,0,0,0,1.7591,1.7529,1.7673,1.7674,1.7675,1.7741,1.7743,1.7744,1.7727,1.7724,1.7722,1.7721,1.7789,1.7794,1.7798,1.7867,0,0,1.7812,1.7814,0,0,0,0,0,0,0,0,1.7588,1.7597,1.7673,1.7674,1.7675,1.7723,1.7716,1.7785,1.7727,1.7707,1.7722,1.772,1.777,1.7776,1.7794,1.787,1.7873,1.7813,1.7816,1.7818,1.7819,0,0,0,0,0,0,0,1.7583,1.7594,1.77,1.7674,1.7676,1.7671,1.7678,1.7729,1.7749,1.7709,1.7707,1.7716,1.777,1.7789,1.7795,1.7874,1.7813,1.7817,1.782,1.7821,1.8009,1.8011,0,0,0,0,0,0,1.7578,1.759,1.7698,1.7702,1.7626,1.7675,1.7683,1.771,1.7748,1.7752,1.7718,1.7715,1.7782,1.779,1.7797,1.7879,1.7818,1.7822,1.7825,1.8007,1.801,1.8012,0,0,0,0,0,0,1.7575,1.7588,1.7695,1.7646,1.7659,1.768,1.771,1.7712,1.7731,1.7755,1.7759,1.7733,1.7781,1.7791,1.785,1.7881,1.7824,1.7828,1.8004,1.8008,1.8011,1.8044,0,0,0,0,0,0,1.7571,1.7587,1.7614,1.7647,1.7662,1.7747,1.7712,1.7715,1.7739,1.7736,1.7771,1.7774,1.778,1.7843,1.7854,1.7887,1.7832,1.8002,1.8006,1.801,1.804,1.8048,1.8055,0,0,0,0,0,1.7565,1.7621,1.7615,1.7628,1.7696,1.7749,1.7758,1.7763,1.7742,1.7769,1.7784,1.7773,1.7876,1.7849,1.7862,1.7896,1.8,1.8005,1.801,1.8037,1.8047,1.8055,0,0,0,0,0,0,1.7591,1.7625,1.7619,1.7687,1.7715,1.7746,1.778,1.7774,1.7808,1.7804,1.7809,1.7817,1.7877,1.7892,1.7861,1.7964,1.7935,1.7942,1.7951,1.7961,1.7968,1.7962,1.7836,0,0,0,0,0,1.7604,1.7645,1.7672,1.7729,1.7744,1.7759,1.7783,1.7784,1.7814,1.7825,1.7845,1.7874,1.7912,1.7937,1.7975,1.8043,1.8049,1.8073,1.808,1.8086,1.8092,1.8128,1.8138,1.8028,1.8028,1.8028,0,0,1.7632,1.7656,1.7681,1.7735,1.7757,1.7798,1.777,1.7815,1.7844,1.7832,1.7888,1.7904,1.7936,1.7999,1.8028,1.8014,1.8124,1.8092,1.8097,1.81,1.8134,1.8144,1.8153,1.8032,1.8031,1.8031,0,0,1.7704,1.7727,1.7776,1.7799,1.7832,1.7842,1.7854,1.7886,1.7895,1.7952,1.7943,1.7979,1.8046,1.8068,1.8088,1.8168,1.8159,1.818,1.8218,1.8252,1.8261,1.8268,1.8295,1.8305,1.8186,1.8186,1.8186,0,1.7735,1.7797,1.7802,1.7847,1.787,1.7861,1.791,1.7932,1.7976,1.7992,1.7976,1.8058,1.8079,1.8147,1.8166,1.8183,1.8196,1.8175,1.8259,1.8267,1.8274,1.83,1.831,1.8188,1.8188,1.8188,1.8188,0,1.7832,1.7875,1.791,1.7953,1.798,1.8027,1.8038,1.8065,1.8065,1.8076,1.8133,1.8158,1.8199,1.8215,1.8215,1.8282,1.8272,1.8258,1.8228,1.8287,1.8311,1.8321,1.8192,1.8191,1.819,1.819,0,0,1.7921,1.7966,1.7978,1.7997,1.8033,1.8066,1.8112,1.8152,1.8174,1.8205,1.8242,1.8299,1.8285,1.8308,1.831,1.8341,1.84,1.8322,1.8323,1.8335,1.8474,1.8483,1.8495,1.8395,1.8397,1.8398,1.847,0,1.7995,1.8076,1.8082,1.8155,1.8194,1.8186,1.8225,1.8251,1.8263,1.8297,1.831,1.8349,1.8329,1.8342,1.8372,1.8386,1.8428,1.8382,1.8429,1.843,1.8419,1.8508,1.8518,1.8585,1.848,1.8482,1.8483,0,1.8092,1.8125,1.8202,1.8231,1.8248,1.8284,1.832,1.8353,1.8382,1.8388,1.8413,1.8411,1.8457,1.8427,1.849,1.8458,1.8478,1.8487,1.849,1.8494,1.8459,1.8512,1.8607,1.8617,1.8498,1.8497,1.8496,0,1.8148,1.8212,1.8265,1.8282,1.8318,1.8343,1.8359,1.8386,1.8409,1.8441,1.8456,1.8493,1.8512,1.8541,1.8548,1.8525,1.861,1.858,1.8615,1.8615,1.8632,1.8631,1.8731,1.8648,1.8647,1.8647,1.8647,0,1.8229,1.8276,1.8291,1.8324,1.8375,1.8381,1.8432,1.8447,1.8471,1.8505,1.8501,1.8533,1.8542,1.8576,1.8582,1.8632,1.8641,1.8646,1.8647,1.8646,1.8645,1.8658,1.8653,1.865,1.8649,1.8649,1.8648,0,1.8299,1.8311,1.8369,1.8398,1.8407,1.8443,1.8468,1.8499,1.851,1.8554,1.8565,1.8581,1.8621,1.8631,1.8679,1.8683,1.8741,1.8739,1.8732,1.8731,1.8764,1.876,1.8875,1.8889,1.8798,1.8799,1.88,0,1.8349,1.8385,1.8418,1.8441,1.8458,1.8496,1.8519,1.8526,1.8551,1.8586,1.8612,1.8651,1.8683,1.8746,1.8762,1.8798,1.8795,1.8833,1.88,1.8797,1.8794,1.8791,1.8794,1.8838,1.8839,1.884,1.8841,0,1.8436,1.844,1.8475,1.8511,1.8539,1.8568,1.8596,1.8615,1.8626,1.8653,1.8694,1.8718,1.8766,1.8805,1.8841,1.8856,1.885,1.8851,1.886,1.8859,1.8853,1.8855,1.8747,1.8848,1.8847,1.8847,1.8846,1.8846,1.8497,1.8528,1.8555,1.8594,1.8615,1.8641,1.8671,1.8686,1.872,1.8759,1.8761,1.8805,1.8831,1.8879,1.8897,1.893,1.8919,1.8933,1.8936,1.8939,1.8941,1.8849,1.8937,1.8937,1.8937,1.8936,1.8936,0,1.8582,1.8599,1.8635,1.8673,1.8703,1.8695,1.8725,1.875,1.8788,1.8814,1.8845,1.8891,1.8927,1.8946,1.8982,1.9006,1.9003,1.9015,1.9012,1.9016,1.8951,1.8938,1.9016,1.9016,1.9016,1.9016,1.9016,1.9016,1.863,1.8681,1.8688,1.875,1.8767,1.8809,1.8827,1.885,1.887,1.8922,1.8952,1.8964,1.8987,1.9024,1.9057,1.9062,1.9075,1.9087,1.909,1.9029,1.902,1.9013,1.9001,1.9091,1.9091,1.9152,1.9153,1.9153]},{"header":{"parameterUnit":"m.s-1","parameterCategory":1,"la1":30.2991,"la2":30.254,"lo1":-89.0895,"lo2":-89.0444,"dy":0.0017,"dx":0.0017,"nx":28,"ny":28,"refTime":"2025-05-15T09:00:00:Z","depth":0,"parameterNumber":3,"parameterNumberName":"V-component_of_WINDS"},"data":[0,0,0,0,0,0,0,0,0,0,0,0,0,0,0,0,0,0,0,0,0,0,0,0,0,0,0,0,0,0,0,0,0,0,0,0,0,0,0,0,0,0,0,0,0,0,0,0,0,0,0,0,0,0,0,0,0,0,5.302,5.3021,0,5.3089,5.309,5.309,5.3034,5.3031,5.3029,5.3027,5.3092,5.3096,5.31,0,0,0,0,0,0,0,0,0,0,0,0,0,5.2833,5.2837,5.302,5.3021,5.3022,5.3089,5.309,5.3091,5.3034,5.3031,5.3028,5.3026,5.3091,5.3095,5.31,0,0,0,0,0,0,0,0,0,0,0,0,0,5.2909,5.2838,5.302,5.3002,5.3001,5.3089,5.309,5.3091,5.3035,5.3031,5.3027,5.3024,5.3089,5.3095,5.3101,5.3208,0,0,5.3119,5.3121,0,0,0,0,0,0,0,0,5.2905,5.2916,5.3003,5.3003,5.3002,5.3049,5.3048,5.313,5.3036,5.3022,5.3027,5.3022,5.308,5.3087,5.3107,5.3212,5.3214,5.3119,5.3123,5.3125,5.3127,0,0,0,0,0,0,0,5.29,5.2913,5.3047,5.3005,5.3004,5.2988,5.2995,5.3063,5.307,5.3022,5.3019,5.3028,5.3079,5.3102,5.3108,5.3215,5.3119,5.3124,5.3128,5.313,5.3411,5.3414,0,0,0,0,0,0,5.2897,5.2909,5.3045,5.3049,5.2944,5.2994,5.3002,5.3037,5.3069,5.307,5.3031,5.3025,5.3093,5.3101,5.311,5.3239,5.3125,5.3131,5.3134,5.3407,5.3412,5.3416,0,0,0,0,0,0,5.2893,5.291,5.3042,5.2978,5.2994,5.3001,5.3042,5.3041,5.3063,5.3075,5.3076,5.3053,5.3091,5.3102,5.3185,5.324,5.3134,5.3139,5.3402,5.3408,5.3414,5.3496,0,0,0,0,0,0,5.2888,5.2909,5.2951,5.2979,5.2997,5.3117,5.3045,5.3045,5.3074,5.3067,5.3096,5.3097,5.3089,5.3176,5.3191,5.3246,5.3144,5.3397,5.3405,5.3412,5.3488,5.3504,5.3517,0,0,0,0,0,5.2882,5.2971,5.2954,5.297,5.3051,5.312,5.313,5.312,5.3079,5.3121,5.3128,5.3097,5.3232,5.3185,5.3201,5.3259,5.3394,5.3403,5.3411,5.3482,5.3501,5.3517,0,0,0,0,0,0,5.2947,5.2974,5.2956,5.3056,5.3087,5.3111,5.3163,5.3141,5.3182,5.3173,5.3157,5.3164,5.3251,5.3263,5.3211,5.3365,5.3306,5.3318,5.3354,5.3372,5.3386,5.3382,5.3149,0,0,0,0,0,5.2973,5.3029,5.3049,5.3136,5.3153,5.3156,5.3185,5.3175,5.3205,5.3217,5.3231,5.326,5.3308,5.3341,5.3386,5.349,5.3495,5.3537,5.3552,5.3564,5.3574,5.3629,5.3648,5.3445,5.3444,5.3444,0,0,5.3027,5.3049,5.3085,5.315,5.3172,5.3229,5.3167,5.3229,5.3271,5.3226,5.3306,5.3317,5.3347,5.3441,5.3483,5.3454,5.3632,5.3575,5.3584,5.3588,5.364,5.366,5.3677,5.345,5.3449,5.3448,0,0,5.3156,5.3179,5.3254,5.3278,5.3313,5.3314,5.3332,5.336,5.3366,5.3446,5.3414,5.3462,5.3546,5.357,5.3593,5.373,5.3702,5.3745,5.3821,5.3874,5.3891,5.3905,5.3954,5.3971,5.3756,5.3756,5.3756,0,5.3219,5.3305,5.3294,5.336,5.3389,5.3353,5.3428,5.3451,5.3498,5.3518,5.3485,5.3591,5.3609,5.3707,5.3741,5.3761,5.378,5.3742,5.3889,5.3904,5.3917,5.3963,5.3981,5.3761,5.3761,5.376,5.376,0,5.338,5.3441,5.3497,5.3546,5.3581,5.3651,5.3649,5.3685,5.3672,5.3676,5.3757,5.3778,5.3827,5.3849,5.3836,5.3946,5.3927,5.3892,5.3832,5.3941,5.3984,5.4002,5.3768,5.3766,5.3765,5.3764,0,0,5.3552,5.3595,5.3616,5.3637,5.3674,5.3719,5.3786,5.3837,5.3868,5.3901,5.3957,5.403,5.3998,5.4024,5.4012,5.406,5.4167,5.4019,5.4019,5.4046,5.4289,5.4315,5.4336,5.4149,5.4152,5.4155,5.4286,0,5.3682,5.3802,5.3794,5.3907,5.3962,5.3928,5.3986,5.4014,5.402,5.4066,5.4071,5.4123,5.4077,5.4092,5.4138,5.4145,5.4216,5.4135,5.4199,5.4202,5.4193,5.4359,5.4387,5.451,5.4303,5.4306,5.4308,0,5.385,5.3892,5.4011,5.4039,5.4061,5.4115,5.416,5.4205,5.4234,5.4235,5.4265,5.4246,5.4312,5.4251,5.4342,5.4287,5.4312,5.432,5.4324,5.433,5.4262,5.4369,5.4549,5.4568,5.4335,5.4333,5.4331,0,5.3963,5.4049,5.4131,5.4151,5.4186,5.4224,5.424,5.4266,5.4297,5.4335,5.4355,5.44,5.4424,5.4459,5.4452,5.4408,5.4544,5.4483,5.4546,5.4546,5.4576,5.4574,5.4763,5.4592,5.4592,5.4592,5.4591,0,5.411,5.4184,5.4183,5.4233,5.4314,5.4304,5.4384,5.4395,5.4419,5.4469,5.4442,5.4489,5.4477,5.4524,5.4518,5.4594,5.4605,5.4606,5.4604,5.4609,5.4609,5.4626,5.4617,5.4597,5.4595,5.4595,5.4594,0,5.425,5.4253,5.434,5.4366,5.4375,5.4433,5.4455,5.4501,5.4505,5.4569,5.4584,5.4589,5.4642,5.4639,5.4698,5.4695,5.4788,5.4776,5.4779,5.4776,5.484,5.4834,5.5046,5.5073,5.4885,5.4887,5.4888,0,5.4344,5.44,5.4433,5.4466,5.4485,5.4538,5.457,5.4561,5.4594,5.4633,5.4675,5.4726,5.4767,5.4854,5.4862,5.4907,5.4895,5.4966,5.4902,5.4905,5.4896,5.4893,5.4899,5.4979,5.4981,5.4983,5.4984,0,5.4509,5.4508,5.4556,5.4604,5.4643,5.468,5.4714,5.4741,5.4736,5.4774,5.483,5.4862,5.4924,5.4975,5.5018,5.5032,5.5008,5.5005,5.5022,5.5028,5.5027,5.5028,5.4814,5.5,5.4998,5.4997,5.4996,5.4996,5.4629,5.4678,5.4709,5.4763,5.4787,5.482,5.4865,5.4875,5.4922,5.4973,5.4964,5.5026,5.5054,5.511,5.5128,5.5175,5.515,5.5174,5.518,5.5187,5.5194,5.502,5.5183,5.5183,5.5182,5.5182,5.5181,0,5.4793,5.4812,5.4862,5.4911,5.4953,5.4928,5.4963,5.5,5.5056,5.5084,5.5125,5.5189,5.5238,5.525,5.5297,5.5333,5.5322,5.5345,5.5342,5.5346,5.5214,5.5195,5.5353,5.5353,5.5353,5.5353,5.5353,5.5353,5.4884,5.4965,5.4967,5.5059,5.5076,5.5139,5.5162,5.5191,5.5214,5.5287,5.5329,5.5337,5.5358,5.5406,5.545,5.5452,5.547,5.5498,5.5496,5.5372,5.5355,5.5339,5.5321,5.5502,5.5502,5.5623,5.5624,5.5625]}]]